Wilmington, OH

3:30 PM EDT on June 25, 2017 (GMT -0400)
Airborne

Weather History for KILN - October, 2011

Change the Weather History Date:

Saturday, October 29, 2011

  Actual Average (KFFO) Record (KFFO)
Temperature  
Mean Temperature 40 °F -  
Max Temperature 53 °F 58 °F 80 °F (1999)
Min Temperature 26 °F 39 °F 28 °F (2007)
Degree Days  
Heating Degree Days 26    
Moisture  
Dew Point 29 °F    
Average Humidity 87    
Maximum Humidity 100    
Minimum Humidity 48    
Precipitation  
Precipitation 0.01 in - - ()
Sea Level Pressure  
Sea Level Pressure 30.10 in    
Wind  
Wind Speed 2 mph (West)    
Max Wind Speed 13 mph    
Max Gust Speed 20 mph    
Visibility 4 miles    
Events Fog    
Averages and records for this station are not official NWS values.
T = Trace of Precipitation, MM = Missing Value Source: NWS Daily Summary

Daily Weather History Graph

Daily Weather History Graph

Search for Another Location

Airport or City:

Trip Planner

Search our weather history database for the weather conditions in past years. The results will help you decide how hot, cold, wet, or windy it might be!

Date:

Astronomy

Oct. 29, 2011 Rise Set
Actual Time 7:59 AM EDT 6:37 PM EDT
Civil Twilight 7:31 AM EDT 7:05 PM EDT
Nautical Twilight 7:00 AM EDT 7:36 PM EDT
Astronomical Twilight 6:29 AM EDT 8:07 PM EDT
Moon 11:19 AM EDT (10/29) 9:01 PM EDT (10/29)
Length of Visible Light 11h 33m
Length of Day
10h 37m
Waxing Crescent, 11% of the Moon is Illuminated
Oct 29
Waxing Crescent
Nov 2
First Quarter
Nov 10
Full
Nov 18
Last Quarter
Nov 25
New

Hourly Weather History & Observations

Time (EDT) Temp. Windchill Dew Point Humidity Pressure Visibility Wind Dir Wind Speed Gust Speed Precip Events Conditions
12:54 AM 33.1 °F 30.0 °F 32.0 °F 96% 30.14 in 5.0 mi North 3.5 mph - N/A   Clear
1:42 AM 30.2 °F - 30.2 °F 100% 30.07 in 1.8 mi Calm Calm - N/A   Clear
1:54 AM 30.0 °F - 30.0 °F 100% 30.14 in 0.8 mi Calm Calm - N/A   Clear
2:17 AM 28.4 °F - 28.4 °F 100% 30.07 in 0.2 mi Calm Calm - N/A Fog Light Freezing Fog
2:41 AM 28.4 °F - 26.6 °F 93% 30.07 in 2.5 mi Calm Calm - N/A   Clear
2:54 AM 28.0 °F - 27.0 °F 96% 30.14 in 0.8 mi Calm Calm - N/A   Clear
3:02 AM 28.4 °F - 28.4 °F 100% 30.07 in 2.0 mi Calm Calm - N/A   Clear
3:24 AM 28.4 °F - 26.6 °F 93% 30.06 in 3.0 mi Calm Calm - N/A   Clear
3:54 AM 28.9 °F - 27.0 °F 92% 30.13 in 5.0 mi Calm Calm - N/A   Clear
4:44 AM 26.6 °F - 26.6 °F 100% 30.07 in 4.0 mi Calm Calm - N/A   Scattered Clouds
4:48 AM 26.6 °F - 26.6 °F 100% 30.07 in 1.2 mi Calm Calm - N/A   Scattered Clouds
4:52 AM 26.6 °F - 26.6 °F 100% 30.07 in 0.8 mi Calm Calm - N/A   Mist
4:54 AM 26.1 °F - 25.0 °F 96% 30.14 in 0.5 mi Calm Calm - N/A Fog Light Freezing Fog
5:01 AM 26.6 °F - 26.6 °F 100% 30.07 in 0.2 mi Calm Calm - N/A Fog Light Freezing Fog
5:19 AM 26.6 °F - 26.6 °F 100% 30.07 in 1.0 mi Calm Calm - N/A   Mist
5:32 AM 26.6 °F - 26.6 °F 100% 30.07 in 2.0 mi Calm Calm - N/A   Scattered Clouds
5:40 AM 26.6 °F - 26.6 °F 100% 30.07 in 1.0 mi Calm Calm - N/A   Mist
5:43 AM 26.6 °F - 26.6 °F 100% 30.07 in 0.8 mi Calm Calm - N/A   Clear
6:21 AM 26.6 °F - 24.8 °F 93% 30.07 in 0.5 mi Calm Calm - N/A Fog Light Freezing Fog
6:34 AM 26.6 °F - 26.6 °F 100% 30.07 in 0.2 mi Calm Calm - N/A Fog Light Freezing Fog
6:54 AM 26.1 °F - 25.0 °F 96% 30.14 in 0.2 mi Calm Calm - N/A Fog Light Freezing Fog
7:54 AM 26.1 °F - 25.0 °F 96% 30.15 in 0.2 mi Calm Calm - N/A Fog Light Freezing Fog
8:28 AM 26.6 °F - 26.6 °F 100% 30.08 in 1.0 mi Calm Calm - N/A   Mist
8:43 AM 28.4 °F - 28.4 °F 100% 30.08 in 1.8 mi Calm Calm - N/A   Scattered Clouds
8:52 AM 30.2 °F - 28.4 °F 93% 30.08 in 2.5 mi Calm Calm - N/A   Scattered Clouds
8:54 AM 30.9 °F - 30.0 °F 96% 30.15 in 2.5 mi Calm Calm - N/A   Mostly Cloudy
9:51 AM 35.6 °F 30.7 °F 35.6 °F 100% 30.09 in 3.0 mi South 5.8 mph - N/A   Partly Cloudy
9:54 AM 36.0 °F 31.1 °F 35.1 °F 97% 30.15 in 4.0 mi South 5.8 mph - N/A   Partly Cloudy
11:54 AM 46.9 °F - 37.0 °F 68% 30.14 in 10.0 mi SW 8.1 mph - N/A   Scattered Clouds
12:54 PM 50.0 °F - 36.0 °F 59% 30.12 in 10.0 mi WSW 8.1 mph - N/A   Clear
1:54 PM 51.1 °F - 36.0 °F 56% 30.11 in 10.0 mi SW 10.4 mph - N/A   Overcast
2:54 PM 50.0 °F - 34.0 °F 54% 30.10 in 10.0 mi WSW 12.7 mph 19.6 mph N/A   Mostly Cloudy
3:54 PM 53.1 °F - 34.0 °F 48% 30.09 in 10.0 mi West 11.5 mph - N/A   Scattered Clouds
4:54 PM 50.0 °F - 32.0 °F 50% 30.11 in 10.0 mi NNW 9.2 mph - N/A   Mostly Cloudy
5:54 PM 48.9 °F - 35.1 °F 59% 30.11 in 10.0 mi WSW 3.5 mph - 0.01 in   Mostly Cloudy
8:54 PM 44.1 °F 41.5 °F 28.0 °F 53% 30.15 in 10.0 mi NNW 4.6 mph - N/A   Clear
9:54 PM 43.0 °F 40.3 °F 28.0 °F 56% 30.16 in 10.0 mi North 4.6 mph - N/A   Clear
10:54 PM 34.0 °F - 30.0 °F 85% 30.18 in 10.0 mi Calm Calm - N/A   Clear
11:54 PM 35.1 °F - 28.9 °F 78% 30.17 in 10.0 mi Calm Calm - N/A   Clear